Hourly Weather Roundup
Issued by NWS Central Illinois

Home | Current Version | Previous Version | Text Only | Print | Product List | Glossary On
Versions: 1 2 3 4 5 6 7 8 9 10 11 12 13 14 15 16 17 18 19 20 21 22 23 24 25 26 27 28 29 30 31 32 33 34 35 36 37 38 39 40 41 42 43 44 45 46 47 48 49 50
838
NZUS43 KILX 220610
HWRILX

AREA WEATHER ROUNDUP
NATIONAL WEATHER SERVICE, LINCOLN IL
1200 AM CST SUN JAN 22 2017


CITY           SKY/WX    TMP DP  RH WIND       PRES   REMARKS
BLOOMINGTON    CLOUDY    43  41  93 NE6       29.59F
6HR MIN TEMP:  43; 6HR MAX TEMP:  53;

CHAMPAIGN      CLOUDY    50  44  80 NE7       29.57F
6HR MIN TEMP:  48; 6HR MAX TEMP:  52;

DANVILLE       RAIN      49  49  97 CALM      29.56F
6HR MIN TEMP:  49; 6HR MAX TEMP:  54; 6HR PCP:  0.05;

DECATUR        CLOUDY    50  45  83 NE5       29.57F
6HR MIN TEMP:  46; 6HR MAX TEMP:  54;

EFFINGHAM      PTCLDY    48  48 100 CALM      29.58F
6HR MIN TEMP:  48; 6HR MAX TEMP:  61;

FLORA          MOCLDY    55  51  85 CALM      29.56F
6HR MIN TEMP:  52; 6HR MAX TEMP:  59;

GALESBURG      FOG       33  33 100 CALM      29.58S VSB 1/4
6HR MIN TEMP:  33; 6HR MAX TEMP:  43;

JACKSONVILLE   CLOUDY    45  42  89 NE6       29.57S
6HR MIN TEMP:  44; 6HR MAX TEMP:  49;

LACON          FOG       40  40 100 CALM      29.59S VSB 1/4
6HR MIN TEMP:  38; 6HR MAX TEMP:  47;

LAWRENCEVILLE  PTCLDY    49  48  97 E3        29.57F
6HR MIN TEMP:  48; 6HR MAX TEMP:  57;

LITCHFIELD     CLOUDY    49  45  86 N8        29.55F
6HR MIN TEMP:  49; 6HR MAX TEMP:  55;

$$


CITY           SKY/WX    TMP DP  RH WIND       PRES   REMARKS
LINCOLN        CLOUDY    45  43  94 N5        29.58F
6HR MIN TEMP:  44; 6HR MAX TEMP:  52;

MACOMB         FOG       35  35 100 CALM      29.61S VSB 1/4
6HR MIN TEMP:  35; 6HR MAX TEMP:  46;

MATTOON        CLOUDY    50  49  96 CALM      29.57F
6HR MIN TEMP:  50; 6HR MAX TEMP:  58;

MT CARMEL AP   CLOUDY    51  47  87 E6        29.57F
6HR MIN TEMP:  49; 6HR MAX TEMP:  59;

OLNEY-NOBLE AP CLOUDY    55  52  88 CALM      29.57F
PARIS          CLOUDY    49  49 100 CALM      29.59S
6HR MIN TEMP:  45; 6HR MAX TEMP:  53;

PEORIA         MOCLDY    38  38 100 N3        29.59S FOG
6HR MIN TEMP:  38; 6HR MAX TEMP:  50;

PONTIAC        FOG       38  38 100 N8        29.60F VSB 1/4 WCI  32
6HR MIN TEMP:  37; 6HR MAX TEMP:  52;

RANTOUL        CLOUDY    50  46  87 NE3       29.58F
6HR MIN TEMP:  48; 6HR MAX TEMP:  54;

SPRINGFIELD    CLOUDY    47  42  83 N5        29.57F
6HR MIN TEMP:  45; 6HR MAX TEMP:  55;

TAYLORVILLE    PTCLDY    46  44  93 NE5       29.57F
6HR MIN TEMP:  46; 6HR MAX TEMP:  56;

$$

...REGIONAL REPORTS...


CITY           SKY/WX    TMP DP  RH WIND       PRES   REMARKS
CHICAGO O`HARE FOG       42  42 100 NW6       29.59S VSB 1/2
KANKAKEE       PTCLDY    38  37  98 CALM      29.60S
MOLINE         CLOUDY    43  37  79 NW6       29.58F
MOUNT STERLING CLOUDY    42  42  97 NE7       29.57F FOG
MOUNT VERNON   PTCLDY    46  45  96 CALM      29.54F
PITTSFIELD     CLOUDY    48  44  87 NE7       29.57F
QUINCY         CLOUDY    42  41  96 N7        29.57F FOG
ROCKFORD       FOG       41  39  93 S3        29.60S VSB 1/4
$$


CITY           SKY/WX    TMP DP  RH WIND       PRES   REMARKS
BURLINGTON     FOG       37  37 100 CALM      29.58S VSB 1
CEDAR RAPIDS   FOG       33  33 100 S3        29.57S VSB 3/4
DES MOINES     FOG       31  30  96 S5        29.56F VSB 1/8 WCI  26
KIRKSVILLE     CLOUDY    39  38  96 SE9       29.58R FOG     WCI  33
OTTUMWA        FOG       30  30 100 CALM      29.55F VSB 1/4
ST LOUIS       CLOUDY    55  40  56 NE6       29.53F
$$


CITY           SKY/WX    TMP DP  RH WIND       PRES   REMARKS
TERRE HAUTE    CLEAR     46  44  93 CALM      29.58F
EVANSVILLE     CLOUDY    52  47  83 N3        29.57F
INDIANAPOLIS   MOCLDY    52  48  86 SE7       29.60F
LAFAYETTE      RAIN      49  49 100 NW5       29.60R FOG
MADISON        CLOUDY    41  40  96 CALM      29.57F FOG
MILWAUKEE      CLOUDY    44  40  85 SW5       29.58F
$$






USA.gov is the U.S. government's official web portal to all federal, state and local government web resources and services.